Regional Weather Roundup
Issued by NWS

Home | Current Version | Previous Version | Text Only | Print | Product List | Glossary Off
Versions: 1 2 3 4 5 6 7 8 9 10 11 12 13 14 15 16 17 18 19 20 21 22 23 24 25 26 27 28 29 30 31 32 33 34 35 36 37 38 39 40 41 42 43 44 45 46 47 48 49 50

000
ASUS45 KPSR 190210
RWRAZ

ARIZONA REGIONAL HOURLY WEATHER ROUNDUP
NATIONAL WEATHER SERVICE PHOENIX AZ
700 PM MST THU SEP 18 2014

NOTE: FAIR INDICATES FEW OR NO CLOUDS BELOW 12,000 FEET WITH NO
SIGNIFICANT WEATHER AND/OR OBSTRUCTIONS TO VISIBILITY.

AZZ001>003-036-190300-
NORTHWEST ARIZONA

CITY           SKY/WX    TMP DP  RH WIND       PRES   REMARKS
BULLHEAD CITY  CLEAR     99  59  26 S16       29.61S
KINGMAN        CLEAR     83  53  35 SW10      29.84R
$$

AZZ004>008-015-016-018-190300-
NORTH CENTRAL ARIZONA

CITY           SKY/WX    TMP DP  RH WIND       PRES   REMARKS
GRAND CANYON   PTCLDY    66  50  56 SW3       30.06R
PRESCOTT       PTCLDY    74  56  53 SW8       29.98R
FLAGSTAFF      CLOUDY    62  57  83 W3        30.12R
PAYSON         CLOUDY    70  61  73 N5        30.02R
PAGE           CLEAR     84  47  27 NE3       29.85S
$$

AZZ009>014-017-190300-
NORTHEAST ARIZONA

CITY           SKY/WX    TMP DP  RH WIND       PRES   REMARKS
WINSLOW        CLEAR     75  57  53 SW6       29.94R
SAINT JOHNS    PTCLDY    71  54  54 S3        29.99S
WINDOW ROCK    CLOUDY    67  48  50 S6        30.07R
SHOW LOW       MOCLDY    64  55  72 S8        30.09R
$$

AZZ023-190300-
GREATER PHOENIX AREA

CITY           SKY/WX    TMP DP  RH WIND       PRES   REMARKS
PHOENIX        PTCLDY    92  63  38 S7        29.70R
BUCKEYE          N/A     88  64  45 E6        29.70R
GLENDALE       PTCLDY    91  64  40 SE5       29.71R
LUKE AFB       CLEAR     92  63  37 SE6       29.69R
DEER VALLEY    CLEAR     90  62  39 S6        29.72R
SCOTTSDALE     CLEAR     90  63  40 S5        29.74R
MESA-FALCON    PTCLDY    91  63  38 S6        29.73R
MESA-GATEWAY   PTCLDY    90  64  43 VRB6      29.75R
CHANDLER       PTCLDY    90  64  43 SW9       29.73R
$$

AZZ027-028-190300-
SOUTHWEST MARICOPA COUNTY AND PINAL COUNTY

CITY           SKY/WX    TMP DP  RH WIND       PRES   REMARKS
CASA GRANDE    CLEAR     88  63  42 CALM      29.75R
GILA BEND      PTCLDY    95  59  30 CALM      29.70R
$$

AZZ503-504-507>509-190300-
SOUTHEAST ARIZONA

CITY           SKY/WX    TMP DP  RH WIND       PRES   REMARKS
TUCSON         CLOUDY    81  64  56 E6        29.86R
DAVIS-MONTHAN  CLOUDY    79  64  60 E5        29.84R
RYAN FIELD       N/A     82  66  57 E6        29.83R
NOGALES        MOCLDY    70  67  90 S5        29.93R
SIERRA VISTA   MOCLDY    70  64  83 W3        29.98R
DOUGLAS        CLOUDY    69  67  93 S7        29.95R
SAFFORD        CLOUDY    75  65  70 S5        29.88R
$$

AZZ020-021-025-026-031-190300-
SOUTHWEST ARIZONA

CITY           SKY/WX    TMP DP  RH WIND       PRES   REMARKS
YUMA           PTCLDY   100  40  12 W13       29.63R
$$

CAZ031-033-041-043-047-048-061-190300-
SOUTHERN CALIFORNIA

CITY           SKY/WX    TMP DP  RH WIND       PRES   REMARKS
DOWNTOWN L.A.  PTCLDY    72  63  73 VRB5      29.82R
L.A. AIRPORT   PTCLDY    70  64  81 W13       29.83R
SAN DIEGO      CLOUDY    73  65  75 W10       29.85R
BURBANK        CLEAR     72  62  71 S7        29.82R
ONTARIO        PTCLDY    78  61  55 SW14      29.82R
RIVERSIDE      CLEAR     77  63  61 W10       29.81R
PALM SPRINGS   CLEAR     95  50  21 MISG      29.66R
EL CENTRO NAS  PTCLDY    93  47  20 W18       29.63R
IMPERIAL       CLEAR     92  50  23 W13       29.63R
BLYTHE         CLEAR    100  41  13 SW16      29.61R
NEEDLES        CLEAR     98  60  28 S10       29.63S
$$

NVZ020-UTZ003-190300-
SOUTHERN NEVADA-UTAH

CITY           SKY/WX    TMP DP  RH WIND       PRES   REMARKS
LAS VEGAS      PTCLDY    92  30  11 SW16      29.67S
SALT LAKE CITY PTCLDY    84  45  25 SW6       29.76R
$$

NMZ009-TXZ055-190300-
NEW MEXICO-WEST TEXAS

CITY           SKY/WX    TMP DP  RH WIND       PRES   REMARKS
ALBUQUERQUE    MOCLDY    71  56  58 S13       30.02R
EL PASO        LGT RAIN  68  64  87 N10       29.93R
$$


........................KEY........................
SKY/WX - SKY CONDITION/WEATHER
TMP    - TEMPERATURE IN FAHRENHEIT
DP     - DEW POINT IN FAHRENHEIT
RH     - RELATIVE HUMIDITY IN PERCENT
WIND   - DIRECTION AND SPEED IN MILES PER HOUR (MPH)
VRB    - VARIABLE WIND DIRECTION
PRES   - MEAN SEA LEVEL PRESSURE IN INCHES OF MERCURY
         F - FALLING PRESSURE   R - RISING PRESSURE
         S - STEADY PRESSURE
VSB    - VISIBILITY IN MILES
HX     - HEAT INDEX IN FAHRENHEIT
WCI    - WIND CHILL INDEX IN FAHRENHEIT
TC     - TEMPERATURE IN CELSIUS WHICH IS ALSO KNOWN AS
         TEMPERATURE IN CENTIGRADE
AFB    - AIR FORCE BASE
         LUKE AFB IS LUKE AIR FORCE BASE
         DAVIS-MONTHAN IS DAVIS-MONTHAN AIR FORCE BASE
NAS    - NAVAL AIR STATION
         EL CENTRO NAS IS EL CENTRO NAVAL AIR STATION
N/A    - NOT AVAILABLE



USA.gov is the U.S. government's official web portal to all federal, state and local government web resources and services.